Location: Pasadena, ca
(34.1243°N, 118.1037°W)
Time: 14:29:17
(UTC-08:00)

Hubble Space Telescope - Pass Details

Date: 19 November 2017
Orbit: 537 x 541 km, 28.5° (Epoch: 22 November)

Event Time Altitude Azimuth Distance (km) Brightness Sun altitude
Exits shadow 04:30:12 29° 175° (S) 1,003 2.2 -24.5°
Maximum altitude 04:30:25 29° 169° (SSE) 999 2.2 -24.5°
Drops below altitude 10° 04:34:00 10° 108° (ESE) 1,781 4.5 -23.7°
Sets 04:36:27 0° 97° (E) 2,673 5.8 -23.2°
